AGEN POKER | JUDI ONLINE | JUDI BOLA | POKER INDONESIA | AGEN CASINO ONLINE | BANDAR BOLA TERPERCAYA | SITUS JUDI BOLA ONLINE TERBESAR DAN TERPERCAYA DI INDONESIA
xjudi
Klik189
TEXASPOKER77 Agen Poker Kiu Kiu Online Indonesia Terpercaya

Jackpot

Texas Poker Multi Jackpot System

Kini Telah hadir Jackpot SUPER ROYAL FLUSH

Kini Telah hadir Jackpot 2000 (khusus table VIP keatas).

Ikutilah global jackpot yang tersedia di system kami, dengan system jackpot terbaru dan pertama di indonesia, anda dapat membeli jackpot dengan harga 100 rupiah saja dan menangkan hadiahnya hingga puluhan juta rupiah.

Jackpot bukanlah suatu keharusan untuk dibeli, namun kami memberikan suatu fitur tambahan untuk member tercinta dari www.txpk77.com.

Terdapat tiga pilihan harga jackpot yang bisa anda beli yaitu :100,500,1000 dan 2000(khusus table VIP Keatas) rupiah.

Hadiah dari Multi jackpot system www.txpk77.com

  1. full house x 10 harga jackpot yang anda beli.
      (contoh:anda membeli 1000 maka:1000 X10 = 10.000)
  2. four of kind x 250 harga jackpot yang anda beli
      (contoh:anda membeli 1000 maka:1000 X250 = 250.000)
  3. Straight flush x 1200
      (contoh:anda membeli 1000 maka:1000 X1200 = 1.200.000)
  4. Royal flush x 10000 harga jackpot yang anda beli
      (contoh:anda membeli 1000 maka:1000 X10000 = 10.000.000)
  5. SUPER ROYAL FLUSH x 30000 harga jackpot yang anda beli
      (contoh:anda membeli 1000 maka:1000 X30000 = 30.000.000)

Kondisi kartu

  1. full house adalah kondisi kartu dimana kartu anda dan kartu tengah dengan total 7 kartu bisa mendapatkan nilai 5 kartu dengan kombinasi 1 tris(three of kind) dan 1 pair, contoh 3 kartu 10 dan 2 kartu 5
  2. Four of kind adalah kondisi kartu dimana kartu anda dan kartu tengah dengan total 7 kartu bisa mendapatkan nilai 5 kartu dengan kombinasi 4 kartu yang sama jumlah dan 1 kartu apapun juga contoh anda mendapatkan 4 buah kartu angka 3 dan 1 kartu apapun.
  3. Staright flush adalah kondisi kartu dimana kartu anda dan kartu tengah dengan total 7 kartu bisa mendapatkan nilai 5 kartu dengan kombinasi seri / staright dengan kembang yang sama contoh : urutan kartu dari angka 5, 6, 7, 8 , 9 10 dengan kembang yg sama misalnya as hati
  4. Royal flush adalah kondisi kartu dimana kartu anda dan kartu tengah dengan total 7 kartu bisa mendapatkan nilai 5 kartu dengan kombinasi seri / staright dengan kembang yang sama tetapi kartu tersebut haruslah dimulai dari 10. contoh 10, Queen, Jack, King dan aces dengan kembang yang sama
  5. Super Royal flush adalah kondisi kartu dimana Kedua kartu anda digabung dengan 3 kartu pertama meja haruslah royal flush. contoh kartu anda 10,Queen kembang sama dan 3 kartu pertama meja adalah Jack, King dan aces dengan kembang yang sama

Demikian adalah penjelasan dari Multi Jackpot www.txpk77.com terima kasih dan selamat bermain salam hoki dari kami

Texas Poker Jackpot Winner

TOP SUPER ROYAL FLUSH
No.TanggalNamaPriceWin
122/07 03:37MUMU1003Super Royal flush6,000,000
222/07 03:02KINGRAJSuper Royal flush15,000,000
321/07 23:05MANGKARMANSuper Royal flush6,000,000
421/07 22:49RASUL880Super Royal flush3,000,000
521/07 16:17REY345189Super Royal flush15,000,000
TOP ROYAL FLUSH
No.TanggalNamaPriceWin
122/07 03:03WEND123456Royal flush10,000,000
222/07 02:49AMEL992Royal flush2,000,000
322/07 02:41BHONTOT313Royal flush2,000,000
422/07 02:33BUDO868688Royal flush10,000,000
522/07 02:22CD2D667BRoyal flush5,000,000
TOP STRAIGHT FLUSH
No.TanggalNamaPriceWin
122/07 03:42CIMOT012Straight Flush240,000
222/07 03:40AS_HOKI_ASStraight Flush600,000
322/07 03:39AD1F03CDStraight Flush600,000
422/07 03:37GENOID02Straight Flush120,000
522/07 03:37OSINOMPONGStraight Flush600,000
LATEST JACKPOT
No.TanggalNamaPriceWin
122/07 03:45JPB05Full House500
222/07 03:45QIANZIP88Full House5,000
322/07 03:45RAP1ERFour Of A Kind125,000
422/07 03:45LOEKMAN111Full House2,000
522/07 03:45ENOKY88Full House10,000
622/07 03:45ELCANGKOLFull House5,000
722/07 03:45MEGADANA_Full House20,000
822/07 03:45TU4KSINAGAFour Of A Kind125,000
922/07 03:45NO_NA33Full House1,000
1022/07 03:45PELISFull House5,000
1122/07 03:45HERMAN4693Full House2,000
1222/07 03:45TUNGG1RFull House1,000
1322/07 03:45DEWA00008Full House500
1422/07 03:45TINNONK17Full House1,000
1522/07 03:45LOLCARDFour Of A Kind125,000
1622/07 03:45BARRA12Full House1,000
1722/07 03:45TEMPE444Full House5,000
1822/07 03:45EVOFOUR26Four Of A Kind25,000
1922/07 03:45AEROK155Full House5,000
2022/07 03:45XXXFOUR99_Full House2,000
2122/07 03:44EXEXEXXXFour Of A Kind125,000
2222/07 03:44MISNAK_900Four Of A Kind125,000
2322/07 03:44JUTO43Full House10,000
2422/07 03:44LOKOTKALIFull House5,000
2522/07 03:44QUVBPYNHWAFull House1,000
2622/07 03:44HWMHWMFull House2,000
2722/07 03:44CHONYFull House10,000
2822/07 03:44TIARAP29Full House20,000
2922/07 03:44LUTPY27Full House2,000
3022/07 03:44CHOBENZ123Full House2,000
3122/07 03:44GZB3YOP7K4Full House20,000
3222/07 03:44PABZ0406Full House2,000
3322/07 03:44GLONGFull House1,000
3422/07 03:44RAJA222222Full House5,000
3522/07 03:44RINDUWAN29Full House10,000
3622/07 03:44MOSUMFull House2,000
3722/07 03:44BHOLONG12Full House2,000
3822/07 03:44KINTIL1STFour Of A Kind125,000
3922/07 03:44QZAA1XA6X2Full House10,000
4022/07 03:44ACELOLEEFull House2,000
4122/07 03:44SRTLRT1MXFull House10,000
4222/07 03:44JOSSGANFull House2,000
4322/07 03:44UJDBURP2XVFull House5,000
4422/07 03:44DVKIRANFull House1,000
4522/07 03:44DARKZLIU15Full House10,000
4622/07 03:44CHO1R3Full House1,000
4722/07 03:44OLAALA04_Full House1,000
4822/07 03:44P1P3T_666Full House2,000
4922/07 03:44FARISS16Full House5,000
5022/07 03:44TOJINK20Full House5,000

Domino Multi Jackpot System

Ikutilah global jackpot yang tersedia di system kami, dengan system jackpot terbaru dan pertama di indonesia, anda dapat membeli jackpot dengan harga 100 rupiah saja dan menangkan hadiahnya hingga puluhan juta rupiah.

Jackpot bukanlah suatu keharusan untuk dibeli, namun kami memberikan suatu fitur tambahan untuk member tercinta dari www.txpk77.com.

Terdapat tiga pilihan harga jackpot yang bisa anda beli yaitu :100,500 dan 1000 rupiah.

Hadiah dari Multi jackpot system www.txpk77.com

  1. Murni Kecil x 50 harga jackpot yang anda beli.
      (contoh:anda membeli 1000 maka:1000 X 50 = 50.000)
  2. Murni Besar x 50 harga jackpot yang anda beli
      (contoh:anda membeli 1000 maka:1000 X 50 = 50.000)
  3. BALAK x 100 harga jackpot yang anda beli
      (contoh:anda membeli 1000 maka:1000 X 100 = 100.000)
  4. ENAM DEWA x 6666 harga jackpot yang anda beli
      (contoh:anda membeli 1000 maka:1000 X 6666 = 6.666.000)

Demikian adalah penjelasan dari Multi Jackpot www.txpk77.com terima kasih dan selamat bermain salam hoki dari kami

Domino Jackpot Winner

TOP ENAM DEWA
No.TanggalNamaPriceWin
122/07 02:41BXU4HETHYImurni enam3,333,000
222/07 02:24IV4G1GS885murni enam666,600
322/07 02:14RIZAL1986murni enam6,666,000
422/07 01:39AMSAH2606murni enam3,333,000
522/07 01:11VIN703murni enam3,333,000
TOP BALAK
No.TanggalNamaPriceWin
122/07 03:40LASINO23balak100,000
222/07 03:39LINGLUNG95balak100,000
322/07 03:36ALUSDA7balak10,000
422/07 03:35BNITOTOTObalak50,000
522/07 03:34JABRIK177balak10,000
LATEST JACKPOT
No.TanggalNamaPriceWin
122/07 03:45BOOTLUCK99murni kecil25,000
222/07 03:43SOEX46murni besar50,000
322/07 03:43RIKI1225murni kecil25,000
422/07 03:42ZUIIImurni besar50,000
522/07 03:42TIDE011murni kecil25,000
622/07 03:41RAZAKHImurni kecil50,000
722/07 03:41CEEMMEETmurni besar50,000
822/07 03:40D99DE4FBmurni kecil5,000
922/07 03:40LASINO23balak100,000
1022/07 03:40DOWNP2PP1Amurni besar50,000
1122/07 03:39SURYADHARMmurni kecil5,000
1222/07 03:39LINGLUNG95balak100,000
1322/07 03:39RAZAKHImurni kecil50,000
1422/07 03:39RANGUT8murni besar5,000
1522/07 03:38GALOENK88murni besar50,000
1622/07 03:38DEDY991murni besar25,000
1722/07 03:38PALE36murni besar50,000
1822/07 03:38AADRAGAA95lucky992,500
1922/07 03:38SGSSPROmurni besar25,000
2022/07 03:37E7JUSQSUQHmurni besar5,000
2122/07 03:37DYT0283murni besar25,000
2222/07 03:37PENEGAK69murni besar50,000
2322/07 03:36ALUSDA7balak10,000
2422/07 03:36DEDY991murni kecil25,000
2522/07 03:35CUPLUY01murni kecil25,000
2622/07 03:35BNITOTOTObalak50,000
2722/07 03:35QUATMILIQmurni kecil50,000
2822/07 03:34T4DTYAS04murni besar50,000
2922/07 03:34JABRIK177balak10,000
3022/07 03:34GEMBOL1945murni besar25,000
3122/07 03:34KATARINAGGmurni kecil5,000
3222/07 03:31SENTA119murni besar5,000
3322/07 03:30JITEM200murni kecil50,000
3422/07 03:30ROBERTA79murni kecil50,000
3522/07 03:30BEJECKmurni besar50,000
3622/07 03:30RUBICON777balak50,000
3722/07 03:29JANUARY20murni besar50,000
3822/07 03:29QUATMILIQmurni kecil50,000
3922/07 03:29JITEM200murni besar50,000
4022/07 03:29SOEX46balak100,000
4122/07 03:29DGRATU86balak50,000
4222/07 03:29VALLENISTYmurni kecil25,000
4322/07 03:28GOIP09murni kecil50,000
4422/07 03:28S3R188murni kecil5,000
4522/07 03:27HOKIPUNYA8murni besar25,000
4622/07 03:27JABRIK177murni besar5,000
4722/07 03:27D291185murni kecil50,000
4822/07 03:26BOMENG89murni besar5,000
4922/07 03:26TIDE011murni besar25,000
5022/07 03:26QUATMILIQmurni besar50,000

Ceme Multi Jackpot System

Jackpot dilihat dari gabungan kartu pemain dengan kartu bandar. Bandar harus membeli jackpot sebanyak jumlah player yang sedang duduk. Sebagai contoh bila terdapat 3 pemain duduk bermain, dan bandar memutuskan untuk membeli jackpot Rp 1.000, maka pada periode tersebut bandar akan membeli jackpot sebanyak 3xRp1.000 = Rp3.000.

Jackpot bukanlah suatu keharusan untuk dibeli, namun kami memberikan suatu fitur tambahan untuk member tercinta dari www.txpk77.com.

Terdapat tiga pilihan harga jackpot yang bisa anda beli yaitu :100,500 dan 1000 rupiah.

Hadiah dari Multi jackpot system www.txpk77.com

  1. Murni Kecil x 50 harga jackpot yang anda beli.
      (contoh:anda membeli 1000 maka:1000 X 50 = 50.000)
  2. Murni Besar x 50 harga jackpot yang anda beli
      (contoh:anda membeli 1000 maka:1000 X 50 = 50.000)
  3. BALAK x 200 harga jackpot yang anda beli
      (contoh:anda membeli 1000 maka:1000 X 200 = 200.000)
  4. ENAM DEWA x 6666 harga jackpot yang anda beli
      (contoh:anda membeli 1000 maka:1000 X 6666 = 6.666.000)

Demikian adalah penjelasan dari Multi Jackpot www.txpk77.com terima kasih dan selamat bermain salam hoki dari kami

Ceme Jackpot Winner

TOP ENAM DEWA
No.TanggalNamaPriceWin
122/07 03:41PUKAK98murni enam6,666,000
222/07 03:41DELE777murni enam6,666,000
322/07 03:384NIRK3Nmurni enam3,333,000
422/07 03:36MNCIS17murni enam3,333,000
522/07 03:09RIZKY_JPKUmurni enam6,666,000
TOP BALAK
No.TanggalNamaPriceWin
122/07 03:44MUNAWAR172balak100,000
222/07 03:44KUNYINbalak100,000
322/07 03:44ISAL111282balak20,000
422/07 03:43DADIB323balak200,000
522/07 03:43RUDIJORDANbalak20,000
LATEST JACKPOT
No.TanggalNamaPriceWin
122/07 03:45OMJIN01murni kecil5,000
222/07 03:45N_J_O_09murni kecil5,000
322/07 03:45RAJESSSSSSSmurni kecil50,000
422/07 03:45ERYLAN956murni kecil5,000
522/07 03:45OEBAN007murni kecil50,000
622/07 03:45STP1982murni kecil25,000
722/07 03:44AZALIA08murni kecil50,000
822/07 03:44WHUSHUmurni besar5,000
922/07 03:44MUNAWAR172balak100,000
1022/07 03:44SET4N088murni besar25,000
1122/07 03:44AMELMARSELmurni besar50,000
1222/07 03:44RIKII92murni kecil25,000
1322/07 03:44CHAN700murni besar5,000
1422/07 03:44KUNYINbalak100,000
1522/07 03:44ISAL111282balak20,000
1622/07 03:44AKU1507murni besar50,000
1722/07 03:44SAPURATA15murni kecil5,000
1822/07 03:43KUDA244murni kecil50,000
1922/07 03:43F09A739Amurni kecil5,000
2022/07 03:43MEMEDT4T0murni besar50,000
2122/07 03:43DADIB323balak200,000
2222/07 03:43TOIPIKmurni kecil25,000
2322/07 03:43KORMI7murni kecil50,000
2422/07 03:43ASDO11murni kecil25,000
2522/07 03:43A35955A5murni kecil5,000
2622/07 03:43JAVAS15murni kecil50,000
2722/07 03:43RUDIJORDANbalak20,000
2822/07 03:43LEORAJA9murni besar50,000
2922/07 03:43ATEVmurni besar50,000
3022/07 03:42RAFFANDUUTmurni kecil50,000
3122/07 03:42IR_FAN03murni kecil25,000
3222/07 03:42B6FB2385murni kecil50,000
3322/07 03:42RIBKA22murni kecil50,000
3422/07 03:42AQUA1908murni kecil50,000
3522/07 03:42KERASKALmurni kecil50,000
3622/07 03:42AWAN0493murni kecil50,000
3722/07 03:42NAFFFImurni kecil50,000
3822/07 03:42PUTRA9195murni kecil25,000
3922/07 03:42NANDA44murni kecil25,000
4022/07 03:41YEXNOmurni kecil50,000
4122/07 03:41ECOM86murni besar5,000
4222/07 03:41MARIANIK1balak200,000
4322/07 03:41PUTRIASALbalak100,000
4422/07 03:41HAHO7murni besar50,000
4522/07 03:41DEWI1234murni besar50,000
4622/07 03:41PUKAK98murni enam6,666,000
4722/07 03:41DELE777murni enam6,666,000
4822/07 03:41AWAN0493murni kecil50,000
4922/07 03:41MENT0S999murni kecil25,000
5022/07 03:41PAKWO01murni kecil50,000